Dauphin Barker Airport
CYDN : rendu visible

Aérodrome :











RETROUVEZ-NOUS SUR...

 
LOGIN :

S'inscrire | Disclaimer

   EN    FR    IT 

 









Légende :    VFR   VFR Marginal   IFR   IFR Intensif   IFR Très Intensif
Visi : 
Plafond : 
>= 8 km
>= 3000ft
5 à 8 km
1000 à 3000 ft
1500m à 5 km
500 à 1000 ft
800 à 1500m
200 à 500 ft
< 800m
< 200 ft
Symboles :   Orages  Brouillard  Fortes neiges  Fortes précipitations  Vent > 20 kt






- Altitude de l'aérodrome : 999 ft
- Code IATA : YDN


CYDN - Dauphin Barker

DERNIER METAR :
  • 300400Z AUTO 29007KT 9SM SCT100 BKN120 09/02 A2974 RMK SLP079

METARs EXPIRÉS :
  • 300300Z AUTO 32012G17KT 300V360 9SM FEW070 BKN083 OVC120 11/01 A2973 RMK SLP075 DENSITY ALT 1000FT
  • 300200Z AUTO 27007KT 9SM SCT100 BKN120 10/03 A2970 RMK SLP068

TAF TAF CYDN
Valide du 30 à 00h jusqu'au 30 à 12h UTC


292338Z 3000/3012 29010G20KT P6SM BKN080
TEMPO 3000/3003 VRB20G30KT P6SM -SHRA BKN040
FM300300 30010KT P6SM SCT080
TEMPO 3003/3012 BKN080 RMK FCST BASED ON AUTO OBS. NXT FCST BY 300600Z
FIR CZWG / Amérique du Nord



MET'MAP, la Météo Aéronautique d'un coup d'oeil ! - Copyright ORBIFLY Décembre 2007 - Disclaimer

ORBIFLY MET'MAP TEAM :

Programmation & Développement : Alexandra Zaïnal
Sur une idée originale de : Baudouin d'Aumeries
Assistance à la programmation : Marc-Olivier Méhu
Soutien technique & logistique : Manuel Goepfert

Contact : metmap@orbifly.com




SOURCES & CREDITS :

   NOAA       Earth
Advisory